THORAD AGENA D DEB, 42533

Orbit data source: Space-Track

THORAD AGENA D DEB, 42533 is space debris in SSO originally from a launch on Wed, 08 Apr 1970 UTC launched from the Air Force Western Test Range (AFWTR). Debris objects in space refer to the collection of defunct objects orbiting the Earth. Examples of debris include non-operational satellites, rocket bodies, and fragments generated from explosions, collisions, or faulty payload assembly.

Loading next visibility...
Identifier
42533, 1970-025SP
Orbit
SSO
Country
Flag of USUS
Related business
Manufacturer
Unknown
Mission
Spacecraft
Bus & Motor
Unknown
Mass
Unknown
Launch date (UTC)
1970-04-08 (56 years ago)
Launch vehicle
Unknown
Launch site
Air Force Western Test Range (AFWTR)
Object type
Payload
Rocket body
Debris
Shape & HBR
Unknown shape, 0.1 m
Radar Cross Section
Small (<0.1 m²)

Expand to show TLE details & history
Last TLE update: 4 days ago

TLE from 4 days ago
0 THORAD AGENA D DEB
1 42533U 70025SP  26169.52987802  .00001195  00000-0  96501-3 0  9996
2 42533  99.6593  86.9052 0137219 334.7918  24.6583 13.88240259634089
Epoch: 2026-06-18T12:43Z
TLE epoch observation values (Epoch: 2026-06-18T12:43:01.460Z)
Latitude
-0.00003°
Longitude
-10.62277°
Altitude
846.674 km
Speed
7.475 km/s
True Right ascension
05h 47m 37s
True Declination
0° 00' 00"
Sunlit
Object was in daylight at epoch
Visualization orbit readout
Latitude
Unknown
Longitude
Unknown
Altitude
Unknown
Speed
Unknown
Apparent Right ascension
Unknown
Apparent Declination
Unknown
Sunlit
N/A
Visualization observer readout
Local Sidereal Time
21:38:13
Azimuth
Unknown
Elevation
Unknown
Doppler factor
Unknown
Orbital elements
Apogee altitude
1,032.362 km
Perigee altitude
831.742 km
Semi-major axis
7,310.189 km
Eccentricity
0.01372
Inclination
99.6593°
RAAN
86.9052°
Arg. of periapsis
334.7918°
True anomaly
25.32469°
Mean anomaly
24.6583°
Eccentric anomaly
24.99045°
Mean motion
3.47256 °/min
Orbital period
103.67 mins
BSTAR
0.00096501
Loading maneuver chart data...
Computing Atmospheric mass density...

Documentation

Showing up to 5 results
|